Weather in Proskokovo

Russia / Kemerovo Oblast     55°50′16″N   84°43′23″E
temp.,
°C
wind,
m/s
gust,
m/s
humid.,
%
clouds,
%
prec.,
mm/h
press.,
hPa
HPBL,
m
20 april, tue
tue2001:00−8wnw477979 0.0 1024729
04:00−9wnw478517 0.0 1025627
07:00−10wnw588378 0.0 1026613
10:00−8wnw5770100 0.0 10261017
13:00−5wnw5661100 0.1 10251323
16:00−3wnw5654100 0.1 10241545
19:00−3w466299 0.1 1024810
22:00−6sw2480100 0.0 102583
21 april, wed
wed2101:00−6sw4880100 0.0 1024307
04:00−5ssw41078100 0.0 1022460
07:00−5ssw5976100 0.0 1022558
10:00−3ssw6767100 0.0 1022990
13:00−1s4671100 0.1 10221112
16:000sse3369100 0.2 1023888
19:00−1ese3480100 0.8 1026633
22:00−2ne357885 0.1 1029130
22 april, thu
thu2201:00−3ne48845 0.1 1031231
04:00−4nne38825 0.0 1034218
07:00−5nne49845 0.0 1037288
10:00−1nne58655 0.0 1039892
13:00+1nne5766100 0.1 10401239
16:00+3ne6758100 0.3 10411432
19:00+2nne577259 0.4 1043882
22:00−1nne38885 0.0 1046202
23 april, fri
fri2301:00−2nne38905 0.0 1046205
04:00−2nne38905 0.0 1046246
07:00−2nne38885 0.0 1046294
10:00+2ne57696 0.0 1046714
13:00+4ne6755100 0.1 10451593
16:00+5ne675397 0.0 10431712
19:00+4nne596820 0.0 1043444
22:000nne411825 0.0 1042222
24 april, sat
sat2401:00−1nne4118740 0.0 1041271
04:00−1nne41088100 0.0 1039272
07:00−1nne51186100 0.0 1037357
10:00+2nne61073100 0.0 1036585
13:00+5nne7863100 0.0 10341086
16:00+6nne6859100 0.0 10321538
19:00+5nne5871100 0.1 1032581
22:00+2ne368596 0.1 1032147